Location: Bonneuil
(46.1010°N, 2.9693°E)
Time: 01:48:14
(UTC+00:00)

ISS - Pass Details

Date: 09 March 2021
Orbit: 418 x 422 km, 51.6° (Epoch: 10 April)

Event Time Altitude Azimuth Distance (km) Brightness Sun altitude
Exits shadow 05:30:41 10° 288° (WNW) 1,526 -1.5 -8.0°
Reaches altitude 10° 05:30:45 10° 287° (WNW) 1,499 -1.6 -8.0°
Maximum altitude 05:33:56 40° 217° (SW) 626 -3.2 -7.5°
Drops below altitude 10° 05:37:06 10° 145° (SE) 1,492 -0.5 -6.9°
Sets 05:39:16 0° 138° (SE) 2,352 0.7 -6.5°
